Port Hedland, Australia

8:17 AM AWST on April 30, 2017 (GMT +0800)
Port Hedland International

Weather History for YPPD - October, 2013

Change the Weather History Date:

Friday, October 4, 2013

  Actual Average Record
Temperature  
Mean Temperature 82 °F -  
Max Temperature 103 °F 94 °F 105 °F (2010)
Min Temperature 61 °F 66 °F 55 °F (2011)
Cooling Degree Days 17    
Growing Degree Days 32 (Base 50)    
Moisture  
Dew Point 48 °F    
Average Humidity 41    
Maximum Humidity 72    
Minimum Humidity 4    
Precipitation  
Precipitation 0.00 in 0.00 in - ()
Sea Level Pressure  
Sea Level Pressure 29.87 in    
Wind  
Wind Speed 6 mph ()    
Max Wind Speed 16 mph    
Max Gust Speed -    
Visibility 5.9 miles    
Events      
Averages and records for this station are not official NWS values.
T = Trace of Precipitation, MM = Missing Value Source: Averaged Metar Reports

Daily Weather History Graph

Daily Weather History Graph

Search for Another Location

Airport or City:

Trip Planner

Search our weather history database for the weather conditions in past years. The results will help you decide how hot, cold, wet, or windy it might be!

Date:

Astronomy

Oct. 04, 2013 Rise Set
Actual Time 5:44 AM AWST 6:04 PM AWST
Civil Twilight 5:22 AM AWST 6:26 PM AWST
Nautical Twilight 4:56 AM AWST 6:52 PM AWST
Astronomical Twilight 4:30 AM AWST 7:18 PM AWST
Moon 4:54 AM AWST (10/4) 5:26 PM AWST (10/4)
Length of Visible Light 13h 04m
Length of Day
12h 20m
Waning Crescent, 1% of the Moon is Illuminated
Oct 4
Waning Crescent
Oct 5
New
Oct 12
First Quarter
Oct 19
Full
Oct 27
Last Quarter

Hourly Weather History & Observations

Time (AWST) Temp. Heat Index Dew Point Humidity Pressure Visibility Wind Dir Wind Speed Gust Speed Precip Events Conditions
12:00 AM 66 °F - 55 °F 59% 29.94 in - South 3.5 mph - -  
12:00 AM 66.2 °F - 55.4 °F 68% 29.92 in 6.2 mi South 3.5 mph - N/A   Unknown
12:30 AM 66.2 °F - 53.6 °F 64% 29.92 in 6.2 mi West 4.6 mph - N/A   Unknown
1:00 AM 64.4 °F - 53.6 °F 68% 29.92 in 6.2 mi ESE 2.3 mph - N/A   Unknown
1:30 AM 64.4 °F - 53.6 °F 68% 29.89 in 6.2 mi Calm Calm - N/A   Unknown
2:00 AM 64 °F - 53 °F 58% 29.91 in - SW 1.2 mph - -  
2:00 AM 64.4 °F - 53.6 °F 68% 29.89 in 6.2 mi SW 1.2 mph - N/A   Unknown
2:30 AM 64.4 °F - 53.6 °F 68% 29.89 in 6.2 mi Calm Calm - N/A   Unknown
3:00 AM 63 °F - 53 °F 60% 29.90 in - Calm Calm - -  
3:00 AM 62.6 °F - 51.8 °F 68% 29.89 in 6.2 mi Calm Calm - N/A   Unknown
3:30 AM 64.4 °F - 51.8 °F 64% 29.89 in 6.2 mi Calm Calm - N/A   Unknown
4:00 AM 60.8 °F - 51.8 °F 72% 29.89 in 6.2 mi West 4.6 mph - N/A   Unknown
4:30 AM 62.6 °F - 51.8 °F 68% 29.89 in 6.2 mi NW 5.8 mph - N/A   Unknown
5:00 AM 62 °F - 53 °F 64% 29.90 in - WNW 5.8 mph - -  
5:00 AM 62.6 °F - 53.6 °F 72% 29.89 in 6.2 mi WNW 5.8 mph - N/A   Unknown
5:30 AM 62.6 °F - 53.6 °F 72% 29.89 in 6.2 mi WSW 4.6 mph - N/A   Unknown
6:00 AM 62 °F - 53 °F 63% 29.91 in - SW 6.9 mph - -  
6:00 AM 62.6 °F - 51.8 °F 68% 29.89 in 6.2 mi SW 6.9 mph - N/A   Unknown
6:30 AM 66.2 °F - 51.8 °F 60% 29.89 in 6.2 mi South 4.6 mph - N/A   Unknown
7:00 AM 69.8 °F - 53.6 °F 56% 29.92 in 6.2 mi SSW 4.6 mph - N/A   Unknown
7:30 AM 77.0 °F - 46.4 °F 34% 29.92 in 6.2 mi SSW 5.8 mph - N/A   Unknown
8:00 AM 82 °F - 46 °F 18% 29.93 in - SSW 6.9 mph - -  
8:00 AM 82.4 °F - 46.4 °F 28% 29.92 in 6.2 mi SSW 6.9 mph - N/A   Unknown
8:30 AM 86.0 °F - 42.8 °F 22% 29.92 in 6.2 mi South 6.9 mph - N/A   Unknown
9:00 AM 90 °F - 40 °F 10% 29.93 in - SSE 5.8 mph - -  
9:00 AM 89.6 °F - 41.0 °F 18% 29.92 in 6.2 mi SSE 5.8 mph - N/A   Unknown
9:30 AM 95.0 °F - 35.6 °F 12% 29.92 in 6.2 mi ESE 6.9 mph - N/A   Unknown
10:00 AM 96.8 °F - 33.8 °F 11% 29.89 in 6.2 mi ESE 8.1 mph - N/A   Unknown
10:30 AM 100.4 °F - 21.2 °F 6% 29.89 in 6.2 mi ESE 6.9 mph - N/A   Unknown
11:00 AM 101 °F - 32 °F 4% 29.89 in - SSE 5.8 mph - -  
11:00 AM 100.4 °F - 32.0 °F 9% 29.89 in 6.2 mi SSE 5.8 mph - N/A   Unknown
11:30 AM 102.2 °F - 21.2 °F 6% 29.86 in 6.2 mi SSE 5.8 mph - N/A   Unknown
12:30 PM 100.4 °F - 35.6 °F 11% 29.86 in 6.2 mi North 10.4 mph - N/A   Unknown
1:00 PM 100.4 °F - 39.2 °F 12% 29.83 in 6.2 mi North 10.4 mph - N/A   Unknown
1:30 PM 100.4 °F - 21.2 °F 6% 29.83 in 6.2 mi North 10.4 mph - N/A   Unknown
2:00 PM 100 °F - 40 °F 6% 29.82 in - North 12.7 mph - -  
2:00 PM 100.4 °F - 39.2 °F 12% 29.80 in 6.2 mi North 12.7 mph - N/A   Unknown
2:30 PM 100.4 °F - 39.2 °F 12% 29.80 in 6.2 mi NW 12.7 mph - N/A   Unknown
3:00 PM 98 °F - 42 °F 8% 29.81 in - NW 13.8 mph - -  
3:00 PM 98.6 °F - 42.8 °F 15% 29.80 in 6.2 mi NW 13.8 mph - N/A   Unknown
3:30 PM 96.8 °F - 37.4 °F 13% 29.80 in 6.2 mi NW 15.0 mph - N/A   Unknown
4:00 PM 96.8 °F - 28.4 °F 9% 29.80 in 6.2 mi WNW 16.1 mph - N/A   Unknown
4:30 PM 96.8 °F - 30.2 °F 10% 29.80 in 6.2 mi NW 15.0 mph - N/A   Unknown
5:00 PM 95 °F - 31 °F 5% 29.82 in - WNW 12.7 mph - -  
5:00 PM 95.0 °F - 30.2 °F 10% 29.80 in 6.2 mi WNW 12.7 mph - N/A   Unknown
5:30 PM 91.4 °F - 46.4 °F 21% 29.80 in 6.2 mi WNW 8.1 mph - N/A   Unknown
6:00 PM 86 °F - 52 °F 21% 29.83 in - WNW 9.2 mph - -  
6:00 PM 86.0 °F - 51.8 °F 31% 29.80 in 6.2 mi WNW 9.2 mph - N/A   Unknown
6:30 PM 82.4 °F - 51.8 °F 35% 29.83 in 6.2 mi West 10.4 mph - N/A   Unknown
7:00 PM 80.6 °F 80.8 °F 57.2 °F 45% 29.83 in 6.2 mi West 11.5 mph - N/A   Unknown
7:30 PM 80.6 °F 81.1 °F 59.0 °F 48% 29.83 in 6.2 mi West 10.4 mph - N/A   Unknown
8:00 PM 80 °F - 60 °F 41% 29.86 in - West 10.4 mph - -  
8:00 PM 80.6 °F 81.5 °F 60.8 °F 51% 29.86 in 4.3 mi West 10.4 mph - N/A   Unknown
8:30 PM 78.8 °F - 60.8 °F 54% 29.86 in 6.2 mi West 10.4 mph - N/A   Unknown
9:00 PM 77 °F - 62 °F 51% 29.87 in - West 9.2 mph - -  
9:00 PM 77.0 °F - 62.6 °F 61% 29.86 in 6.2 mi West 9.2 mph - N/A   Unknown
9:30 PM 75.2 °F - 62.6 °F 65% 29.86 in 6.2 mi West 8.1 mph - N/A   Unknown
9:58 PM 73.4 °F - 62.6 °F 69% 29.86 in 3.7 mi West 6.9 mph - N/A   Unknown
10:00 PM 73.4 °F - 60.8 °F 65% 29.86 in 1.8 mi West 6.9 mph - N/A   Unknown
10:06 PM 73.4 °F - 60.8 °F 65% 29.86 in 0.5 mi West 6.9 mph - N/A   Unknown
10:30 PM 73.4 °F - 60.8 °F 65% 29.83 in - West 5.8 mph - N/A   Unknown
11:00 PM 74 °F - 62 °F 57% 29.85 in - WSW 5.8 mph - -  
11:00 PM 73.4 °F - 62.6 °F 69% 29.83 in 6.2 mi WSW 5.8 mph - N/A   Unknown
11:30 PM 73.4 °F - 60.8 °F 65% 29.83 in 6.2 mi West 8.1 mph - N/A   Unknown